DMSP 5D-2 F13 DEB

Satellite information

Favourite Embed

Satellite Type and Status

DEBRISIN ORBIT

Key statistics

Satellite DMSP 5D-2 F13 DEB at a glance.

Uptime

11223

Days in orbit

Revolutions

≈ 14.3

Per day

Orbit

SSO

Sun Synchronous Orbit

Inclination

98.7

Latest

Satellite identification and parameters

Extended collection of information and parameters for DMSP 5D-2 F13 DEB.

Object identification

Identified? True

Debris? True

Object name: DMSP 5D-2 F13 DEB

International designator: 1995-015AC

Object number (NORAD): 40415

Object ID (CCSDS): 40415

Country: UNITED STATES OF AMERICA (US)

Current information (Y/N): Y

RCS size: SMALL

Orbital parameters

Period: 100.797 minutes

Inclination: 98.7353 deg

SMA: 7174.504 km

Apoapsis: 800.881 km

Periapsis: 791.857 km

RAAN: 5.787 deg

Eccentricy: 0.00062892

Argument of periapsis: 164.06 deg

Mean anomaly: 196.0781 deg

Mean motion: 14.28614188 rev/day

Mean motion (dot): 0.00004028 rev/day2

B* drag term: 0.0016210146 1/REarth

Two-line elements (TLE)

Creation date: Dec. 9, 2025, 5:41 p.m.

Reference frame: TEME

Reference center: EARTH

Epoch: Dec. 9, 2025, 12:03 p.m. UTC

TLE line 0: 0 DMSP 5D-2 F13 DEB

TLE line 1: 1 40415U 95015AC 25343.50225140 .00004028 00000-0 16210-2 0 9996

TLE line 2: 2 40415 98.7353 5.7870 0006289 164.0600 196.0781 14.28614188558957

Live tracking on map

Real-time ground track for satellite DMSP 5D-2 F13 DEB.

In-orbit conjunctions

A list of the most updated potential collisions computed for object DMSP 5D-2 F13 DEB.

Target Orbit TCA Probability of collision Miss distance Type
THOR ABLESTAR DEB LEO 2025-06-11 15:38:25 0.0001050013 351.0 (m) DEBRIS

Associated space launch

Military meteorological satellite

DMSP 5D-2 F13 DEB was lifted into orbit during the mission ‘Atlas E | DMSP-5D2 F13’, on board a Atlas E space rocket.

The launch took place on March 24, 1995, 2:05 p.m. from Space Launch Complex 3W.

For more information about the launch, click the button.

Launch to space Atlas E | DMSP-5D2 F13
Atlas E | DMSP-5D2 F13

Agency: N/A

Status: Launch Successful

Launch date: March 24, 1995, 2:05 p.m. UTC

Rocket: Atlas E

Launch pad: Space Launch Complex 3W

Location: Vandenberg SFB, CA, USA

...

Latest news about this satellite

There are no fresh news available about this satellite. Check back as we update our databases every day.


Newsletter sign-up

Weekly statistics, charts and insights to help you stay on top of the space industry.